Home > Time Zones > World Clock > Weather > Spain > Lugo > Past weeks

Flag for Spain Weather past 2 weeks in Lugo, Galicia, Spain

Now
63 °F

Scattered clouds.


Feels Like: 63 °F
Forecast: 60 / 73 °F
Wind: 7 mph from Southeast

Location: Santiago / Labacolla

Current Time: Sep 16, 2014 at 10:18:46 AM

Latest Report: Sep 16, 2014 at 10:00 AM


Visibility: N/A

Pressure: 29.62 "Hg

Humidity: 94%

Dew point: 61 °F

Location of LugoLocation

Historic Weather in Lugo — Graph

°F

Lugo temperature yesterday

Maximum temperature yesterday: 72 °F (at 4:30 PM)
Minimum temperature yesterday: 57 °F (at 3:30 AM)
Average temperature yesterday: 63 °F

Past Weeks' High & Low Weather Summary

 TemperatureHumidityPressure
High91 °F (Sep 2, 2:30 PM)100% (Sep 2, 6:30 AM)30.09 "Hg (Sep 2, 6:30 AM)
Low54 °F (Sep 5, 7:30 AM)36% (Sep 2, 2:30 PM)29.65 "Hg (Sep 16, 8:00 AM)
Average67 °F82%29.97 "Hg
* Reported Sep 1 9:00 AM — Sep 16 9:00 AM, Lugo, Weather by CustomWeather, © 2014

Note: Actual official high and low records may vary slightly from our data, if they occured in-between our weather recording intervals... More about our weather records

Advertising

Lugo weather history for previous 24 hours

 ConditionsComfort  
Time TempWeatherWind HumidityBarometerVisibility
9:00 AM
Sep 16
61 °FPassing clouds.7 mph100%29.65 "HgN/A
8:30 AM61 °FPassing clouds.5 mph100%29.65 "HgN/A
8:00 AM61 °FPassing clouds.6 mph100%29.65 "Hg6 mi
7:30 AM61 °FLight rain. Partly cloudy.6 mph100%29.68 "Hg6 mi
7:00 AM61 °FLight rain. Partly cloudy.7 mph100%29.68 "Hg4 mi
6:30 AM61 °FRain. Partly cloudy.7 mph100%29.71 "Hg4 mi
6:00 AM61 °FRain. Partly cloudy.6 mph100%29.71 "Hg5 mi
5:30 AM61 °FRain. Partly cloudy.7 mph100%29.71 "Hg5 mi
4:30 AM61 °FPassing clouds.8 mph94%29.71 "HgN/A
4:00 AM61 °FLight rain. Passing clouds.9 mph100%29.74 "HgN/A
3:00 AM63 °FPassing clouds.5 mph94%29.77 "HgN/A
2:30 AM63 °FPassing clouds.7 mph94%29.77 "HgN/A
2:00 AM63 °FPassing clouds.7 mph94%29.77 "HgN/A
1:30 AM63 °FPassing clouds.5 mph94%29.80 "HgN/A
1:00 AM63 °FFog.5 mph94%29.80 "HgN/A
12:30 AM63 °FPassing clouds.3 mph94%29.80 "Hg5 mi
12:00 AM63 °FLight rain. Partly cloudy.3 mph100%29.83 "Hg4 mi
11:30 PM
Sep 15
63 °FSnow. Overcast.3 mph100%29.83 "Hg2 mi
11:00 PM63 °FRain. Partly cloudy.6 mph100%29.86 "Hg2 mi
10:30 PM63 °FRain. Partly cloudy.2 mph100%29.86 "Hg4 mi
10:00 PM64 °FSprinkles. Passing clouds.1 mph94%29.83 "Hg4 mi
9:30 PM64 °FScattered clouds.2 mph88%29.83 "HgN/A
9:00 PM64 °FScattered clouds.1 mph94%29.83 "HgN/A
8:30 PM64 °FScattered clouds.2 mph94%29.83 "HgN/A
8:00 PM64 °FScattered clouds.1 mph94%29.86 "HgN/A
7:30 PM66 °FScattered clouds.5 mph83%29.86 "HgN/A
7:00 PM66 °FScattered clouds.2 mph88%29.86 "HgN/A
6:30 PM66 °FScattered showers. Broken clouds.3 mph88%29.86 "HgN/A
6:00 PM66 °FScattered showers. Scattered clouds.2 mph94%29.86 "HgN/A
5:30 PM66 °FScattered showers. Scattered clouds.5 mph94%29.86 "HgN/A
5:00 PM68 °FScattered clouds.2 mph78%29.86 "HgN/A
4:30 PM72 °FScattered clouds.3 mph69%29.86 "HgN/A
4:00 PM70 °FScattered clouds.9 mph69%29.86 "HgN/A
3:30 PM70 °FScattered clouds.8 mph73%29.89 "HgN/A
3:00 PM70 °FBroken clouds.8 mph73%29.89 "HgN/A
2:30 PM70 °FBroken clouds.13 mph73%29.89 "HgN/A
2:00 PM70 °FPartly sunny.8 mph73%29.89 "HgN/A
1:30 PM70 °FPartly sunny.10 mph69%29.89 "HgN/A
1:00 PM70 °FPartly sunny.10 mph69%29.89 "HgN/A
12:30 PM70 °FScattered clouds.10 mph73%29.89 "HgN/A
12:00 PM68 °FPassing clouds.8 mph73%29.89 "HgN/A
11:30 AM66 °FPassing clouds.10 mph78%29.89 "HgN/A
11:00 AM64 °FPassing clouds.10 mph83%29.89 "HgN/A
10:30 AM63 °FPassing clouds.8 mph83%29.89 "HgN/A
10:00 AM59 °FScattered clouds.7 mph94%29.92 "HgN/A
Weather by CustomWeather, © 2014

See weather overviewHow to use our weather pages